DW7888 Weather Reports


time (UTC)temp
C
wind
direction
speed
KPH
gust
KPH
rain 1hr
cm
rain 24hr
cm
rain mn
cm
humidity
%
barometer
mb
20260831005018 25 152 0.0 0.0 0.00 0.00 0.00 84 1019.9
20260831004534 25 152 0.0 0.0 0.00 0.00 0.00 83 1019.8
20260831004002 25 152 0.0 0.0 0.00 0.00 0.00 83 1019.6
20260831003510 25 152 0.0 0.0 0.00 0.00 0.00 82 1019.6
20260831003006 25 152 0.0 1.6 0.00 0.00 0.00 82 1019.6
20260831002502 25 152 0.0 1.6 0.00 0.00 0.00 82 1019.4
20260831002007 25 152 0.0 0.0 0.00 0.00 0.00 81 1019.4
20260831001508 26 152 0.0 0.0 0.00 0.00 0.00 81 1019.4
20260831001005 26 152 0.0 0.0 0.00 0.00 0.00 81 1019.3
20260831000511 26 152 0.0 0.0 0.00 0.00 0.00 80 1019.2
20260831000006 26 152 0.0 0.0 0.00 0.00 0.00 80 1019.3
20260830235504 26 152 0.0 0.0 0.00 0.00 0.00 79 1019.4
20260830235013 27 152 0.0 0.0 0.00 0.00 0.00 78 1019.3
20260830234505 27 152 0.0 0.0 0.00 0.00 0.00 77 1019.3
20260830234004 27 152 0.0 0.0 0.00 0.00 0.00 77 1019.3
20260830233513 27 152 0.0 0.0 0.00 0.00 0.00 76 1019.4
20260830233007 28 152 0.0 0.0 0.00 0.00 0.00 74 1019.4
20260830232506 28 152 0.0 0.0 0.00 0.00 0.00 73 1019.4
20260830232010 28 152 0.0 1.6 0.00 0.00 0.00 72 1019.4
20260830231503 28 152 0.0 3.2 0.00 0.00 0.00 70 1019.5
20260830231008 29 152 0.0 3.2 0.00 0.00 0.00 69 1019.5
20260830230512 29 152 0.0 3.2 0.00 0.00 0.00 67 1019.5
20260830230004 29 121 0.0 3.2 0.00 0.00 0.00 67 1019.5
20260830225508 29 111 0.0 3.2 0.00 0.00 0.00 67 1019.4
20260830225017 29 165 0.0 3.2 0.00 0.00 0.00 67 1019.4
20260830224504 30 115 0.0 3.2 0.00 0.00 0.00 67 1019.4
20260830224008 30 140 0.0 3.2 0.00 0.00 0.00 66 1019.3
20260830223511 30 126 0.0 6.4 0.00 0.00 0.00 65 1019.4
20260830223007 30 148 0.0 6.4 0.00 0.00 0.00 65 1019.3
20260830222508 30 175 1.6 4.8 0.00 0.00 0.00 65 1019.4
20260830222011 30 111 1.6 6.4 0.00 0.00 0.00 64 1019.3
20260830221503 30 175 1.6 6.4 0.00 0.00 0.00 63 1019.4
20260830221006 30 110 1.6 3.2 0.00 0.00 0.00 65 1019.3
20260830220512 30 350 0.0 4.8 0.00 0.00 0.00 64 1019.4
20260830220014 30 90 0.0 11.3 0.00 0.00 0.00 63 1019.4
20260830215508 30 178 1.6 11.3 0.00 0.00 0.00 63 1019.4
20260830215016 30 82 3.2 9.7 0.00 0.00 0.00 63 1019.4
20260830214508 30 51 0.0 6.4 0.00 0.00 0.00 62 1019.3
20260830214010 30 124 1.6 6.4 0.00 0.00 0.00 62 1019.4
20260830213513 30 103 0.0 6.4 0.00 0.00 0.00 63 1019.3
20260830213006 30 132 1.6 4.8 0.00 0.00 0.00 62 1019.3
20260830212508 30 32 0.0 8.0 0.00 0.00 0.00 63 1019.2
20260830212016 30 205 0.0 8.0 0.00 0.00 0.00 62 1019.2
20260830211509 30 63 0.0 8.0 0.00 0.00 0.00 62 1019.1
20260830211012 30 198 0.0 11.3 0.00 0.00 0.00 62 1019.1
20260830210516 31 139 3.2 11.3 0.00 0.00 0.00 61 1019.1
20260830210019 31 176 1.6 6.4 0.00 0.00 0.00 62 1019.3
20260830205513 31 355 0.0 12.9 0.00 0.00 0.00 60 1019.2
20260830205013 31 227 0.0 12.9 0.00 0.00 0.00 63 1019.3
20260830204508 31 110 3.2 12.9 0.00 0.00 0.00 61 1019.3
20260830204013 31 154 1.6 9.7 0.00 0.00 0.00 61 1019.3
20260830203514 31 206 3.2 8.0 0.00 0.00 0.00 61 1019.4
20260830203008 31 117 1.6 8.0 0.00 0.00 0.00 61 1019.4
20260830202512 31 153 1.6 8.0 0.00 0.00 0.00 61 1019.6
20260830202017 31 101 1.6 4.8 0.00 0.00 0.00 60 1019.6
20260830201512 31 165 0.0 4.8 0.00 0.00 0.00 62 1019.7
20260830201011 31 173 1.6 4.8 0.00 0.00 0.00 61 1019.7
20260830200516 31 123 1.6 4.8 0.00 0.00 0.00 63 1019.7
20260830200010 31 144 0.0 4.8 0.00 0.00 0.00 65 1019.7
20260830195511 31 60 1.6 4.8 0.00 0.00 0.00 63 1019.9
20260830195017 31 24 0.0 6.4 0.00 0.00 0.00 62 1020.0
20260830194513 31 28 1.6 6.4 0.00 0.00 0.00 61 1020.0
20260830194015 31 337 3.2 6.4 0.00 0.00 0.00 61 1020.1
20260830193513 31 86 3.2 6.4 0.00 0.00 0.00 63 1020.2
20260830193013 31 18 1.6 8.0 0.00 0.00 0.00 62 1020.3
20260830192513 31 28 1.6 8.0 0.00 0.00 0.00 63 1020.6
20260830192004 31 355 1.6 6.4 0.00 0.00 0.00 64 1020.6
20260830191553 31 352 3.2 6.4 0.00 0.00 0.00 63 1020.6
20260830191013 30 355 3.2 6.4 0.00 0.00 0.00 65 1020.7
20260830190503 30 5 0.0 4.8 0.00 0.00 0.00 65 1020.8
20260830190019 31 175 1.6 6.4 0.00 0.00 0.00 63 1020.9
20260830185516 30 199 1.6 9.7 0.00 0.00 0.00 66 1021.0
20260830185013 31 303 3.2 9.7 0.00 0.00 0.00 63 1020.9
20260830184524 31 325 1.6 9.7 0.00 0.00 0.00 65 1021.0
20260830184017 31 5 0.0 6.4 0.00 0.00 0.00 67 1021.1
20260830183506 30 126 1.6 4.8 0.00 0.00 0.00 65 1021.2
20260830183020 31 122 0.0 11.3 0.00 0.00 0.00 69 1021.3
20260830182519 31 17 1.6 11.3 0.00 0.00 0.00 66 1021.4
20260830182010 30 338 1.6 9.7 0.00 0.00 0.00 65 1021.5
20260830181520 30 350 1.6 9.7 0.00 0.00 0.00 66 1021.5
20260830181014 30 146 3.2 9.7 0.00 0.00 0.00 65 1021.6
20260830180505 30 324 0.0 6.4 0.00 0.00 0.00 64 1021.8
20260830180033 30 61 1.6 4.8 0.00 0.00 0.00 69 1021.8
20260830175518 30 27 0.0 8.0 0.00 0.00 0.00 67 1021.9
20260830175010 30 121 1.6 8.0 0.00 0.00 0.00 66 1022.0
20260830174530 30 141 1.6 6.4 0.00 0.00 0.00 69 1022.0
20260830174018 30 10 1.6 6.4 0.00 0.00 0.00 67 1022.1
20260830173509 29 339 1.6 6.4 0.00 0.00 0.00 68 1022.1
20260830173026 30 116 0.0 8.0 0.00 0.00 0.00 67 1022.2
20260830172519 29 142 3.2 8.0 0.00 0.00 0.00 75 1022.2
20260830172008 28 342 3.2 8.0 0.00 0.00 0.00 72 1022.3
20260830171523 28 106 1.6 6.4 0.00 0.00 0.00 70 1022.3
20260830171015 28 352 1.6 9.7 0.00 0.00 0.00 71 1022.4
20260830170512 28 321 4.8 9.7 0.00 0.00 0.00 71 1022.3
20260830170025 28 39 4.8 9.7 0.00 0.00 0.00 71 1022.4
20260830165519 29 147 0.0 6.4 0.00 0.00 0.00 70 1022.5
20260830165019 29 95 1.6 6.4 0.00 0.00 0.00 70 1022.5
20260830164527 29 153 1.6 9.7 0.00 0.00 0.00 68 1022.5
20260830164017 28 98 3.2 9.7 0.00 0.00 0.00 71 1022.5
20260830163512 28 153 1.6 8.0 0.00 0.00 0.00 71 1022.6
20260830163037 28 355 3.2 9.7 0.00 0.00 0.00 72 1022.6
20260830162515 28 121 0.0 9.7 0.00 0.00 0.00 70 1022.7
20260830162011 28 172 3.2 8.0 0.00 0.00 0.00 71 1022.7
20260830161527 27 188 3.2 6.4 0.00 0.00 0.00 75 1022.7
20260830161024 27 360 0.0 6.4 0.00 0.00 0.00 76 1022.7
20260830160511 27 127 1.6 6.4 0.00 0.00 0.00 77 1022.8
20260830160038 27 40 0.0 8.0 0.00 0.00 0.00 77 1022.9
20260830155521 27 84 0.0 9.7 0.00 0.00 0.00 75 1023.0
20260830155015 27 351 3.2 9.7 0.00 0.00 0.00 75 1023.0
20260830154529 28 326 0.0 4.8 0.00 0.00 0.00 71 1023.0
20260830154004 27 101 1.6 6.4 0.00 0.00 0.00 74 1023.1
20260830153504 27 111 3.2 9.7 0.00 0.00 0.00 75 1023.1
20260830153004 27 168 4.8 9.7 0.00 0.00 0.00 74 1023.1
20260830152507 27 109 0.0 8.0 0.00 0.00 0.00 75 1023.1
20260830152003 27 105 0.0 9.7 0.00 0.00 0.00 77 1023.1
20260830151503 27 120 3.2 9.7 0.00 0.00 0.00 75 1023.2
20260830151003 27 349 1.6 9.7 0.00 0.00 0.00 78 1023.1
20260830150503 27 143 0.0 9.7 0.00 0.00 0.00 78 1023.0
20260830150016 27 176 1.6 6.4 0.00 0.00 0.00 75 1023.0
20260830145504 26 117 3.2 8.0 0.00 0.00 0.00 77 1023.1
20260830145003 26 159 3.2 8.0 0.00 0.00 0.00 78 1023.1
20260830144513 26 159 3.2 9.7 0.00 0.00 0.00 79 1023.2
20260830144003 26 100 3.2 9.7 0.00 0.00 0.00 78 1023.2
20260830143503 27 138 4.8 9.7 0.00 0.00 0.00 79 1023.1
20260830143005 27 112 1.6 4.8 0.00 0.00 0.00 82 1023.2
20260830142504 26 106 0.0 8.0 0.00 0.00 0.00 81 1023.1
20260830142004 26 136 3.2 8.0 0.00 0.00 0.00 80 1023.1
20260830141503 27 161 1.6 8.0 0.00 0.00 0.00 81 1023.2
20260830141003 26 155 1.6 8.0 0.00 0.00 0.00 85 1023.1
20260830140502 25 101 0.0 9.7 0.00 0.00 0.00 85 1023.2
20260830140003 25 119 3.2 9.7 0.00 0.00 0.00 87 1023.4
20260830135505 25 167 3.2 8.0 0.00 0.00 0.00 87 1023.5
20260830135003 25 162 1.6 8.0 0.00 0.00 0.00 87 1023.5
20260830134505 25 146 1.6 4.8 0.00 0.00 0.00 90 1023.6
20260830134003 24 146 0.0 4.8 0.00 0.00 0.00 92 1023.7
20260830133504 23 126 0.0 6.4 0.00 0.00 0.00 94 1023.8
20260830133006 23 171 0.0 6.4 0.00 0.00 0.00 95 1023.8
20260830132505 23 137 0.0 3.2 0.00 0.00 0.00 95 1023.9
20260830132004 23 212 0.0 4.8 0.00 0.00 0.00 96 1023.8
20260830131506 23 205 0.0 4.8 0.00 0.00 0.00 96 1023.9
20260830131004 22 188 0.0 1.6 0.00 0.00 0.00 97 1023.9
20260830130504 22 188 0.0 1.6 0.00 0.00 0.00 96 1023.9
20260830130006 22 133 0.0 1.6 0.00 0.00 0.00 97 1024.0
20260830125506 22 134 0.0 3.2 0.00 0.00 0.00 97 1024.0
20260830125003 22 134 0.0 3.2 0.00 0.00 0.00 97 1024.1
20260830124507 22 128 0.0 1.6 0.00 0.00 0.00 96 1024.1
20260830124006 22 144 0.0 0.0 0.00 0.00 0.00 96 1024.2
20260830123503 22 144 0.0 0.0 0.00 0.00 0.00 97 1024.3
20260830123009 22 144 0.0 0.0 0.00 0.00 0.00 97 1024.2
20260830122503 22 144 0.0 0.0 0.00 0.00 0.00 97 1024.2
20260830122008 22 144 0.0 0.0 0.00 0.00 0.00 97 1024.2
20260830121508 22 144 0.0 1.6 0.00 0.00 0.00 97 1024.2
20260830121002 22 144 0.0 1.6 0.00 0.00 0.00 97 1024.2
20260830120503 22 144 0.0 1.6 0.00 0.00 0.00 97 1024.1
20260830120006 22 144 0.0 3.2 0.00 0.00 0.00 97 1024.1
20260830115502 21 152 0.0 6.4 0.00 0.00 0.00 97 1024.1
20260830115007 21 152 0.0 6.4 0.00 0.00 0.00 97 1024.0
20260830114509 21 130 0.0 0.0 0.00 0.00 0.00 97 1024.0
20260830114003 21 123 0.0 0.0 0.00 0.00 0.00 96 1023.9
20260830113506 21 123 0.0 0.0 0.00 0.00 0.00 96 1023.9
20260830113016 21 159 0.0 0.0 0.00 0.00 0.00 97 1023.8
20260830112507 21 159 0.0 0.0 0.00 0.00 0.00 97 1023.8
20260830112012 21 159 0.0 0.0 0.00 0.00 0.00 97 1023.8
20260830111508 21 159 0.0 0.0 0.00 0.00 0.00 97 1023.8
20260830111004 21 159 0.0 0.0 0.00 0.00 0.00 96 1023.8
20260830110507 21 159 0.0 0.0 0.00 0.00 0.00 96 1023.8
20260830110012 21 159 0.0 0.0 0.00 0.00 0.00 96 1023.7
20260830105506 21 159 0.0 0.0 0.00 0.00 0.00 96 1023.7
20260830105006 21 159 0.0 0.0 0.00 0.00 0.00 96 1023.6
20260830104507 21 159 0.0 0.0 0.00 0.00 0.00 96 1023.6
20260830104002 21 159 0.0 0.0 0.00 0.00 0.00 96 1023.6
20260830103508 21 159 0.0 0.0 0.00 0.00 0.00 96 1023.6
20260830103010 21 159 0.0 0.0 0.00 0.00 0.00 96 1023.5
20260830102505 21 159 0.0 0.0 0.00 0.00 0.00 96 1023.5
20260830102010 21 159 0.0 0.0 0.00 0.00 0.00 96 1023.4
20260830101510 20 159 0.0 0.0 0.00 0.00 0.00 96 1023.4
20260830101006 20 159 0.0 0.0 0.00 0.00 0.00 96 1023.4
20260830100509 20 159 0.0 0.0 0.00 0.00 0.00 96 1023.3
20260830100013 20 159 0.0 0.0 0.00 0.00 0.00 96 1023.2
20260830095510 20 158 0.0 0.0 0.00 0.00 0.00 96 1023.2
20260830095006 20 158 0.0 0.0 0.00 0.00 0.00 96 1023.1
20260830094513 20 158 0.0 0.0 0.00 0.00 0.00 96 1023.2
20260830094007 20 158 0.0 0.0 0.00 0.00 0.00 96 1023.2
20260830093513 20 158 0.0 0.0 0.00 0.00 0.00 96 1023.1
20260830093023 20 158 0.0 0.0 0.00 0.00 0.00 96 1023.1
20260830092508 20 158 0.0 0.0 0.00 0.00 0.00 96 1023.1
20260830092008 20 158 0.0 0.0 0.00 0.00 0.00 96 1023.2
20260830091518 20 158 0.0 0.0 0.00 0.00 0.00 96 1023.2
20260830091009 20 158 0.0 0.0 0.00 0.00 0.00 96 1023.1
20260830090507 20 158 0.0 0.0 0.00 0.00 0.00 96 1023.1
20260830090014 20 158 0.0 0.0 0.00 0.00 0.00 96 1023.1
20260830085508 20 158 0.0 0.0 0.00 0.00 0.00 96 1023.2
20260830085012 20 158 0.0 0.0 0.00 0.00 0.00 96 1023.2
20260830084506 20 158 0.0 0.0 0.00 0.00 0.00 96 1023.3
20260830084008 20 158 0.0 0.0 0.00 0.00 0.00 96 1023.2
20260830083512 20 158 0.0 0.0 0.00 0.00 0.00 96 1023.2
20260830083004 20 158 0.0 0.0 0.00 0.00 0.00 96 1023.2
20260830082510 20 158 0.0 0.0 0.00 0.00 0.00 96 1023.3
20260830082011 20 158 0.0 0.0 0.00 0.00 0.00 96 1023.4
20260830081517 20 158 0.0 0.0 0.00 0.00 0.00 96 1023.4
20260830081008 20 158 0.0 0.0 0.00 0.00 0.00 96 1023.4
20260830080513 20 158 0.0 0.0 0.00 0.00 0.00 95 1023.4
20260830080006 20 158 0.0 0.0 0.00 0.00 0.00 95 1023.4
20260830075509 20 158 0.0 0.0 0.00 0.00 0.00 95 1023.4
20260830075010 20 158 0.0 0.0 0.00 0.00 0.00 95 1023.5
20260830074503 20 158 0.0 0.0 0.00 0.00 0.00 95 1023.4
20260830074011 20 158 0.0 0.0 0.00 0.00 0.00 95 1023.4
20260830073511 20 158 0.0 0.0 0.00 0.00 0.00 95 1023.4
20260830073005 20 158 0.0 0.0 0.00 0.00 0.00 95 1023.5
20260830072512 20 158 0.0 0.0 0.00 0.00 0.00 95 1023.4
20260830072017 20 158 0.0 0.0 0.00 0.00 0.00 95 1023.4
20260830071508 20 158 0.0 0.0 0.00 0.00 0.00 95 1023.4
20260830071012 20 158 0.0 0.0 0.00 0.00 0.00 95 1023.4
20260830070512 20 158 0.0 0.0 0.00 0.00 0.00 95 1023.4
20260830070010 20 158 0.0 0.0 0.00 0.00 0.00 95 1023.4
20260830065512 20 158 0.0 0.0 0.00 0.00 0.00 95 1023.5
20260830065011 20 158 0.0 0.0 0.00 0.00 0.00 95 1023.6
20260830064512 20 158 0.0 0.0 0.00 0.00 0.00 95 1023.7
20260830064014 20 158 0.0 0.0 0.00 0.00 0.00 95 1023.7
20260830063514 20 158 0.0 0.0 0.00 0.00 0.00 95 1023.6
20260830063019 20 158 0.0 0.0 0.00 0.00 0.00 95 1023.6
20260830062514 20 158 0.0 0.0 0.00 0.00 0.00 95 1023.7
20260830062017 20 158 0.0 0.0 0.00 0.00 0.00 95 1023.7
20260830061518 20 158 0.0 0.0 0.00 0.00 0.00 95 1023.7
20260830061013 20 158 0.0 1.6 0.00 0.00 0.00 95 1023.7
20260830060513 20 158 0.0 3.2 0.00 0.00 0.00 95 1023.8
20260830060029 20 158 0.0 3.2 0.00 0.00 0.00 95 1023.8
20260830055520 20 118 0.0 1.6 0.00 0.00 0.00 95 1023.8
20260830055012 20 118 0.0 1.6 0.00 0.00 0.00 95 1023.8
20260830054513 20 130 0.0 0.0 0.00 0.00 0.00 95 1023.7
20260830054013 20 174 0.0 0.0 0.00 0.00 0.00 95 1023.6
20260830053513 20 174 0.0 0.0 0.00 0.00 0.00 95 1023.7
20260830053014 20 173 0.0 0.0 0.00 0.00 0.00 95 1023.7
20260830052514 20 174 0.0 0.0 0.00 0.00 0.00 94 1023.8
20260830052018 20 173 0.0 0.0 0.00 0.00 0.00 94 1023.8
20260830051517 20 173 0.0 0.0 0.00 0.00 0.00 94 1023.9
20260830051015 20 173 0.0 0.0 0.00 0.00 0.00 94 1023.9
20260830050515 20 173 0.0 0.0 0.00 0.00 0.00 94 1024.0
20260830050019 20 173 0.0 0.0 0.00 0.00 0.00 94 1024.0
20260830045512 21 173 0.0 0.0 0.00 0.00 0.00 94 1024.0
20260830045017 21 173 0.0 0.0 0.00 0.00 0.00 94 1024.0
20260830044528 21 173 0.0 0.0 0.00 0.00 0.00 94 1024.0
20260830044017 21 173 0.0 0.0 0.00 0.00 0.00 94 1024.0
20260830043517 21 173 0.0 0.0 0.00 0.00 0.00 94 1024.1
20260830043020 21 173 0.0 0.0 0.00 0.00 0.00 94 1024.1
20260830042516 21 173 0.0 0.0 0.00 0.00 0.00 94 1024.0
20260830042015 21 173 0.0 0.0 0.00 0.00 0.00 94 1023.9
20260830041542 21 173 0.0 0.0 0.00 0.00 0.00 93 1023.9
20260830041016 21 173 0.0 0.0 0.00 0.00 0.00 93 1023.9
20260830040516 21 173 0.0 0.0 0.00 0.00 0.00 93 1023.9
20260830040027 21 173 0.0 0.0 0.00 0.00 0.00 93 1023.8
20260830035516 21 173 0.0 0.0 0.00 0.00 0.00 93 1023.7
20260830035016 21 173 0.0 0.0 0.00 0.00 0.00 93 1023.7
20260830034524 21 173 0.0 0.0 0.00 0.00 0.00 93 1023.7
20260830034014 21 173 0.0 0.0 0.00 0.00 0.00 93 1023.6
20260830033508 21 173 0.0 0.0 0.00 0.00 0.00 93 1023.5
20260830033030 21 173 0.0 0.0 0.00 0.00 0.00 93 1023.5
20260830032507 21 173 0.0 0.0 0.00 0.00 0.00 92 1023.5
20260830032013 21 173 0.0 0.0 0.00 0.00 0.00 92 1023.4
20260830031530 21 173 0.0 0.0 0.00 0.00 0.00 92 1023.4
20260830031006 21 173 0.0 0.0 0.00 0.00 0.00 92 1023.3
20260830030511 21 173 0.0 0.0 0.00 0.00 0.00 92 1023.2
20260830030038 21 173 0.0 0.0 0.00 0.00 0.00 91 1023.2
20260830025508 22 173 0.0 0.0 0.00 0.00 0.00 91 1023.2
20260830025009 22 173 0.0 0.0 0.00 0.00 0.00 91 1023.2
20260830024527 22 173 0.0 0.0 0.00 0.00 0.00 91 1023.2
20260830024008 22 173 0.0 0.0 0.00 0.00 0.00 91 1023.1
20260830023510 22 173 0.0 0.0 0.00 0.00 0.00 91 1023.1
20260830023033 22 173 0.0 0.0 0.00 0.00 0.00 91 1023.1
20260830022505 22 173 0.0 0.0 0.00 0.00 0.00 91 1023.1
20260830022015 22 173 0.0 1.6 0.00 0.00 0.00 90 1023.0
20260830021528 22 173 0.0 6.4 0.00 0.00 0.00 90 1023.0
20260830021005 22 173 0.0 6.4 0.00 0.00 0.00 90 1023.1
20260830020516 22 161 0.0 0.0 0.00 0.00 0.00 90 1023.1
20260830020038 22 161 0.0 0.0 0.00 0.00 0.00 89 1023.1
20260830015507 22 161 0.0 0.0 0.00 0.00 0.00 89 1023.1
20260830015013 22 161 0.0 0.0 0.00 0.00 0.00 89 1023.0
20260830014531 22 161 0.0 0.0 0.00 0.00 0.00 88 1022.8
20260830014013 23 161 0.0 0.0 0.00 0.00 0.00 88 1022.7
20260830013512 23 161 0.0 0.0 0.00 0.00 0.00 87 1022.9
20260830013033 23 161 0.0 0.0 0.00 0.00 0.00 87 1022.9
20260830012512 23 161 0.0 0.0 0.00 0.00 0.00 87 1022.9
20260830012013 23 161 0.0 0.0 0.00 0.00 0.00 87 1022.7
20260830011532 23 161 0.0 3.2 0.00 0.00 0.00 86 1022.7
20260830011007 23 161 0.0 3.2 0.00 0.00 0.00 86 1022.6
20260830010513 23 169 0.0 3.2 0.00 0.00 0.00 85 1022.4
20260830010029 23 148 0.0 1.6 0.00 0.00 0.00 85 1022.4
20260830005512 23 148 0.0 1.6 0.00 0.00 0.00 85 1022.2